Volver al catálogo

SL-8 DEB

ActivoUNKNOWN
NORAD 21722·DEBRIS·🇷🇺 Russia

Lanzado Feb 12, 1991 desde Plesetsk Cosmodrome

Loading…

Próximos Pases (próximas 24 horas)

TLE

ActualizadoSource: Space-Track

Época: Sep 14, 2026, 10:22 UTC

1 21722U 91009BY  26257.43244368 -.00000014  00000-0 -29865-4 0  9990
2 21722  74.0514 278.4438 0369993 162.0167 268.6279 11.77225004502449

Sigue SL-8 DEB en tiempo real con AllMySat

Download on the App Store